Theta_e
310 311 311 312 311 311 310 310 310 309 311 311 308 308 310 310 305 305 318 319 315 317 321 324 329 332 333 333 337 341 342 343 343 342 341 341 344 345 344 343 343 343 342 342 340 337 336 336 334 334 333 333 334 335 336 336 337 336 336 335 334 332 329 329 329 329 329 327 327 331 334 332 332 331 327 327 331 330 330 329 327 329 328 323 325 326 327
309 310 311 312 310 310 310 310 310 310 310 311 311 311 311 310 310 318 319 323 320 322 325 329 330 332 332 333 336 340 342 342 342 341 342 342 342 343 344 342 341 342 341 340 337 336 334 333 332 331 331 331 332 333 333 335 336 337 337 334 332 330 329 329 330 330 331 329 328 329 330 329 333 335 330 331 328 328 330 332 326 337 332 329 327 325 326
307 309 311 311 310 309 308 310 311 312 311 311 311 311 312 312 312 317 316 320 320 327 333 337 339 339 337 339 339 340 342 340 340 340 338 341 342 342 343 344 341 340 340 340 336 333 332 331 330 330 331 332 333 333 333 334 335 335 334 334 333 330 329 330 333 333 332 330 330 333 331 331 332 334 333 328 331 330 330 330 328 330 335 328 331 326 326
306 309 309 310 310 309 308 309 310 311 310 309 310 310 312 311 312 316 316 316 317 325 331 335 339 337 335 333 335 336 338 336 335 332 333 340 341 342 343 344 341 340 339 338 334 331 331 330 331 331 331 332 333 333 335 335 336 336 337 335 332 332 332 333 333 332 330 330 331 332 331 332 333 333 331 329 333 330 329 328 333 331 330 330 333 332 330
305 309 310 309 309 308 306 306 310 311 312 313 313 314 315 316 316 313 310 315 322 327 331 331 331 332 333 334 335 335 332 331 331 328 332 336 342 343 343 343 340 339 338 336 332 332 332 332 332 333 334 333 333 335 335 336 336 336 335 333 333 332 333 333 333 332 334 330 330 330 331 332 332 333 334 329 331 330 330 330 331 331 334 331 334 334 331
305 309 309 310 306 300 302 312 315 314 311 313 311 312 313 316 317 316 318 320 328 327 329 327 329 328 328 330 336 336 335 332 331 332 335 337 341 345 343 344 341 339 337 336 334 334 334 334 334 334 335 334 334 336 337 336 334 333 334 333 332 332 333 332 332 333 332 331 330 331 331 331 330 328 329 329 327 327 331 334 334 331 329 332 332 332 332
305 309 308 304 299 301 313 316 318 317 316 316 314 315 315 317 319 320 319 324 326 327 328 328 331 331 332 335 333 335 336 338 337 337 337 339 341 345 343 343 341 339 337 336 335 334 334 334 334 333 333 335 336 336 334 332 331 333 332 331 331 331 331 331 331 332 331 331 329 330 330 331 331 328 328 328 328 329 327 330 332 333 332 330 332 333 333
309 305 305 297 299 312 313 316 317 318 316 315 314 311 317 318 317 319 319 324 329 330 332 334 335 334 332 334 336 337 339 338 337 335 334 337 339 343 344 345 343 339 337 336 336 335 336 335 334 334 333 335 335 333 333 331 332 332 332 331 330 331 330 330 331 332 330 330 329 330 330 330 329 328 330 331 329 332 330 327 326 331 333 334 330 332 333
303 305 305 305 312 311 311 312 313 315 314 314 313 309 317 318 319 322 323 328 329 332 334 336 335 335 333 334 336 338 338 339 338 336 335 340 342 346 348 346 342 341 340 339 339 338 336 335 334 334 335 335 334 332 332 331 332 331 331 330 330 331 330 329 331 331 330 329 328 328 329 327 328 328 328 329 331 332 330 328 329 329 331 331 333 331 333
308 304 303 303 304 301 307 314 316 319 319 318 318 316 313 320 323 322 325 330 331 333 334 333 335 336 332 326 329 338 340 340 340 340 341 342 345 347 347 345 342 341 340 341 340 338 336 335 336 336 336 336 335 333 332 331 332 331 330 329 330 331 329 330 331 331 331 331 329 328 327 328 324 329 329 331 331 332 330 329 329 328 333 332 334 335 330
307 305 302 302 302 306 313 314 316 319 320 318 319 314 311 323 325 327 327 329 332 332 331 330 332 327 320 320 327 336 339 336 338 341 342 340 346 348 347 343 341 340 340 340 339 338 336 335 336 337 337 336 333 332 332 331 332 330 330 330 330 329 329 330 331 331 330 330 329 328 326 328 327 329 329 330 330 334 332 331 331 333 330 331 334 335 334
307 306 304 302 308 307 313 316 317 319 320 321 316 303 307 323 324 326 327 329 329 329 330 330 330 326 321 323 330 333 334 337 340 340 339 341 345 346 348 346 344 341 340 339 337 336 334 335 336 337 336 335 334 332 331 331 331 331 332 333 333 332 332 332 331 331 327 331 329 329 328 330 330 330 332 330 332 330 331 328 327 328 331 329 332 333 335
307 307 306 308 310 313 316 316 319 319 320 316 305 303 315 325 326 328 329 331 333 332 330 329 327 330 333 333 335 335 337 338 340 341 343 347 346 346 346 345 345 341 339 338 337 336 336 336 337 336 336 334 333 333 333 332 331 333 335 336 335 334 333 332 332 332 331 332 330 331 329 329 328 330 331 330 330 329 329 329 329 332 332 333 332 332 331
305 307 305 306 312 318 319 322 320 322 316 307 313 321 331 328 327 329 330 332 331 330 331 331 335 335 340 341 333 333 334 336 340 344 344 346 346 347 346 346 343 342 340 339 338 337 337 336 336 337 336 335 335 333 333 331 333 336 337 337 336 335 334 333 332 331 331 333 330 329 331 331 330 331 331 331 329 329 330 330 330 330 331 332 330 332 333
308 308 306 304 299 319 322 318 318 322 312 319 329 328 327 327 330 329 330 330 336 335 334 337 338 338 339 336 336 338 339 339 339 340 343 343 344 343 343 343 343 341 341 339 338 337 337 337 337 336 338 336 335 334 331 334 336 338 338 336 336 335 334 333 333 332 332 331 330 326 329 330 330 328 331 330 330 330 329 329 330 329 330 331 330 330 331
305 305 303 304 313 324 323 319 318 322 329 329 331 325 323 327 327 330 330 333 334 334 334 337 338 339 339 339 340 339 338 339 341 339 343 345 345 344 344 344 342 341 340 341 339 338 337 337 337 338 337 336 335 333 332 336 337 339 337 337 336 334 333 333 332 333 331 331 330 330 330 331 329 329 329 329 329 329 330 329 329 329 330 330 330 329 328
318 313 317 321 325 325 323 322 328 327 328 327 325 324 323 330 328 332 335 335 335 335 337 338 338 337 339 337 340 340 341 338 340 339 341 343 343 343 343 341 342 341 339 338 339 337 337 336 338 339 339 336 335 333 334 337 338 337 336 335 334 332 332 332 332 333 332 331 331 330 330 330 328 328 327 328 327 328 329 328 329 328 330 328 328 328 328
323 324 326 324 323 321 322 324 325 325 326 329 328 327 334 333 333 331 335 332 333 335 338 337 338 339 340 339 338 339 338 339 341 341 341 342 342 342 342 342 341 341 340 338 338 336 336 337 339 341 340 338 335 335 337 338 338 338 335 333 332 331 330 333 332 333 331 331 332 331 331 329 329 329 328 328 327 329 329 329 328 328 328 326 326 327 329
314 309 324 320 320 321 322 322 326 328 327 330 330 331 334 334 333 333 334 334 335 338 339 337 334 338 338 338 336 336 338 340 341 340 340 340 341 340 341 342 341 341 339 336 336 336 335 337 338 339 339 339 339 339 339 338 336 335 333 332 332 332 330 331 331 332 330 330 330 331 330 329 328 328 328 327 327 328 328 327 327 327 326 326 326 325 327
313 317 321 322 324 328 329 328 327 325 327 331 332 332 333 335 335 335 334 333 334 335 335 335 335 337 338 337 338 335 337 340 341 341 341 341 340 342 343 342 342 341 340 338 336 336 337 338 339 339 340 340 340 339 338 336 334 332 331 329 328 329 328 329 330 329 327 328 329 329 329 328 323 323 325 324 323 326 326 326 325 325 326 327 327 326 326
316 323 324 325 327 327 327 327 329 328 330 329 331 336 334 334 334 335 333 332 331 333 336 339 335 332 334 339 336 331 341 342 342 342 342 342 342 342 341 341 343 341 341 339 338 336 337 340 339 340 340 340 340 339 338 336 335 332 329 329 329 329 329 329 328 330 327 327 328 327 328 328 326 327 326 322 323 324 325 328 329 327 328 332 331 328 326
312 314 323 326 320 319 323 324 326 329 331 335 333 334 331 333 335 335 331 332 333 336 334 335 335 336 340 338 339 338 341 342 342 342 343 342 342 341 341 341 342 342 342 341 338 336 338 339 339 339 339 341 340 339 339 338 337 335 333 331 331 330 331 329 328 328 329 327 327 327 325 325 325 327 329 325 328 335 332 334 327 316 319 333 336 336 333
315 323 328 334 330 326 326 327 329 332 332 330 331 333 331 336 337 331 329 331 334 335 335 337 337 337 340 337 339 339 340 342 343 343 343 341 341 340 340 340 340 341 340 340 339 338 338 339 339 339 339 338 339 339 339 339 338 336 335 333 332 331 331 328 328 328 327 327 328 329 328 327 325 324 324 327 311 311 317 327 320 313 310 309 310 314 327
326 327 325 329 329 327 329 330 331 330 337 334 332 335 335 335 333 333 334 335 334 334 335 337 340 336 337 338 340 340 341 343 343 343 342 342 341 340 340 340 340 340 339 339 338 338 338 338 339 339 337 337 340 338 340 339 338 338 337 335 332 332 330 329 332 334 328 329 330 328 328 332 330 329 326 327 330 313 308 311 311 307 305 304 304 306 308
326 329 330 330 330 329 330 333 334 334 334 335 333 336 337 336 335 337 336 335 337 335 335 340 337 341 341 339 341 342 340 340 342 341 342 341 340 339 340 340 340 340 339 339 339 339 338 338 337 337 337 337 338 338 339 338 337 337 337 335 332 331 331 333 337 334 330 331 335 328 324 328 328 328 326 324 323 327 326 308 305 305 304 303 302 301 302
336 332 330 332 331 330 328 327 327 334 333 336 340 339 340 341 339 338 335 336 335 339 339 338 337 340 340 340 341 340 340 340 341 341 339 338 337 338 338 339 339 339 338 339 339 339 338 338 338 337 337 337 338 338 337 337 337 337 336 334 333 332 332 334 333 333 329 332 332 332 332 330 327 326 326 327 326 327 329 330 327 316 307 302 301 301 300
334 333 330 327 324 326 329 325 330 332 334 337 340 337 336 336 338 337 338 338 337 340 340 339 338 338 339 339 340 339 338 339 340 340 338 334 334 335 335 339 339 338 338 338 339 339 339 339 337 337 336 336 337 337 336 336 338 336 335 335 335 335 334 332 330 330 331 332 330 333 333 330 331 329 328 330 329 327 327 325 327 331 330 332 317 304 312
334 333 330 325 329 330 330 331 334 335 337 336 337 334 333 335 334 334 334 335 338 339 339 339 338 339 338 338 338 337 338 338 336 336 335 334 333 335 337 339 339 339 339 338 339 340 339 338 337 336 336 336 337 338 335 336 337 336 336 336 335 333 332 329 332 332 329 330 333 333 331 333 330 329 328 327 326 326 325 327 326 325 325 329 331 322 309
330 331 331 330 331 334 333 335 338 338 337 337 337 334 333 333 334 334 333 335 339 339 338 336 338 340 337 336 338 338 337 335 336 335 336 339 336 336 338 339 339 339 339 338 337 339 339 338 336 335 336 336 336 336 337 336 335 335 335 335 334 333 332 335 334 335 333 333 332 332 333 330 330 329 328 327 327 326 328 328 330 328 328 331 333 333 330
329 330 331 338 334 331 330 330 332 335 335 334 334 333 334 334 331 332 332 333 335 336 339 341 341 340 337 336 337 336 335 335 337 339 335 335 335 337 337 339 340 338 338 338 337 338 338 338 337 337 336 337 336 336 335 337 335 336 336 336 335 333 331 332 333 334 334 333 327 333 334 329 335 332 328 328 328 328 327 328 327 328 327 328 328 326 325
335 335 328 328 330 331 333 336 340 334 334 335 334 334 335 335 334 333 334 336 338 338 340 340 341 341 339 339 341 339 337 338 339 337 337 340 341 340 340 340 336 334 335 336 337 337 338 338 338 338 336 333 331 332 331 331 333 333 332 335 334 334 331 333 332 328 325 327 328 328 327 327 326 327 326 325 326 326 328 327 327 327 327 328 328 327 329
331 327 326 327 327 332 335 341 339 334 335 333 332 334 333 332 331 332 333 335 336 335 338 339 338 339 340 340 342 342 340 340 340 339 337 338 340 342 341 340 340 340 339 339 338 338 337 336 333 334 336 338 332 332 331 329 333 331 329 331 329 331 329 330 329 328 331 329 328 327 327 326 325 325 325 325 325 326 325 325 324 325 326 326 327 328 331
335 331 329 328 328 330 334 337 335 333 334 331 334 336 336 334 333 334 335 336 334 335 335 340 341 342 343 344 344 341 340 341 339 338 337 338 338 339 340 339 339 341 339 339 338 337 336 334 332 335 336 334 331 331 331 331 331 331 331 331 330 331 334 329 328 326 327 325 326 328 328 327 325 325 325 327 328 327 325 326 326 325 326 327 329 332 333
330 333 332 333 332 331 334 335 335 334 333 334 335 336 336 334 334 335 335 338 335 334 337 341 344 343 342 340 341 340 338 337 335 335 336 338 339 340 340 338 340 339 340 340 337 335 335 335 336 336 334 334 335 331 332 332 333 334 333 333 330 331 333 329 328 326 324 324 324 326 329 330 329 326 326 326 326 327 327 327 326 327 326 327 329 331 324
331 330 333 332 333 333 335 334 333 332 331 333 333 333 336 335 336 336 338 337 337 339 343 344 344 343 341 339 339 337 336 335 336 336 338 339 340 341 341 340 340 340 339 340 340 338 337 335 337 337 338 333 332 331 330 330 331 332 334 334 333 330 333 330 328 326 324 323 326 325 325 325 325 326 328 328 326 327 325 326 327 326 327 327 328 331 330
329 330 334 337 336 333 333 332 332 332 331 333 334 333 335 335 335 334 335 336 337 337 340 343 342 338 338 340 338 335 335 333 337 337 338 339 340 342 342 341 340 338 337 337 336 336 337 336 339 340 336 334 332 331 329 330 331 333 336 333 332 330 330 331 331 330 330 326 323 324 325 326 328 328 328 329 327 328 327 328 328 327 326 326 329 332 333
333 339 340 339 338 338 335 341 336 335 333 339 342 336 337 335 335 336 337 336 336 338 340 336 336 336 335 338 336 334 334 334 333 335 338 339 342 343 341 339 339 336 336 333 335 335 335 335 341 340 337 333 335 329 342 333 331 333 335 333 330 327 325 325 326 328 327 331 324 324 326 325 326 326 328 326 325 325 325 325 326 328 328 330 330 331 330
337 338 339 341 343 339 339 338 335 338 335 338 340 343 338 337 337 335 335 337 338 338 338 336 336 337 339 339 335 332 332 333 333 337 342 343 343 341 339 338 337 337 334 336 338 334 334 342 341 340 336 336 332 327 336 340 329 329 328 327 327 327 326 325 325 326 326 326 327 327 325 323 323 322 324 325 327 328 327 326 328 328 329 330 332 332 332
339 341 342 341 341 340 341 343 337 339 335 342 340 342 342 338 337 336 335 335 337 338 336 338 336 338 337 334 334 332 332 332 334 339 340 341 342 342 340 341 342 340 342 339 337 336 343 340 339 338 336 334 333 327 333 338 333 330 328 333 328 327 325 325 325 326 327 331 327 326 327 324 324 324 323 324 326 327 327 332 328 331 333 335 333 332 332
340 342 343 338 338 342 344 344 340 347 342 339 339 342 341 338 336 335 335 336 338 343 338 339 339 336 334 334 333 331 334 335 338 339 339 341 342 340 339 340 340 341 343 342 337 341 343 344 337 335 335 335 332 330 332 335 332 329 327 325 327 326 324 325 324 323 324 326 325 327 324 324 324 324 324 326 326 328 330 329 331 331 330 331 334 335 333
342 345 343 342 345 342 340 339 340 347 345 346 345 345 343 342 341 338 334 335 341 342 347 342 338 337 335 334 333 332 336 334 336 335 340 341 337 337 334 333 339 336 336 336 338 344 346 342 333 330 336 332 331 336 334 335 333 329 327 326 325 324 324 323 322 322 323 322 324 323 323 324 324 324 325 328 333 330 331 333 334 333 331 331 333 335 336
337 337 339 341 344 344 344 344 343 343 347 345 344 341 338 337 337 338 343 338 338 337 343 342 340 341 336 335 334 333 332 334 340 339 339 338 336 334 331 334 338 342 348 345 345 342 343 334 336 335 334 335 336 340 336 335 329 329 329 327 327 326 325 324 324 323 325 324 324 325 327 327 328 328 329 330 334 333 335 334 333 332 333 334 333 335 331
332 332 334 336 343 344 340 347 346 344 344 342 340 341 341 341 341 343 339 344 339 341 345 342 344 341 339 335 335 334 333 334 335 335 336 336 339 337 336 340 342 350 345 344 338 335 332 332 330 329 333 335 336 336 338 332 330 330 329 328 328 327 327 326 326 327 327 328 328 327 329 329 330 329 330 333 332 333 332 333 332 332 332 334 331 330 328
331 332 336 339 342 344 348 348 346 346 343 340 342 343 343 344 342 344 341 341 342 343 342 341 336 337 337 335 330 333 333 332 332 330 331 328 331 337 341 338 341 342 342 338 334 331 330 330 331 334 349 346 343 339 337 333 331 330 329 328 327 328 327 328 328 328 327 327 328 329 330 328 330 332 333 333 332 332 331 332 333 331 329 329 328 326 324
334 339 335 335 341 347 348 347 344 342 344 345 345 343 343 343 342 343 345 346 343 341 345 343 338 335 333 331 333 335 338 337 333 331 327 325 326 330 336 341 341 337 338 336 334 331 332 334 343 345 346 343 342 343 335 332 330 329 330 328 328 328 328 328 329 329 329 332 335 333 333 331 331 332 333 334 332 330 330 330 326 326 326 325 321 318 318
333 337 340 344 339 345 349 349 349 346 345 345 338 341 345 348 348 347 347 346 347 343 341 343 342 338 339 334 337 340 340 336 333 329 337 339 339 339 337 337 334 334 339 341 334 331 337 342 338 342 341 343 344 337 329 328 328 328 329 329 330 330 330 329 334 334 333 332 333 333 332 334 336 335 335 332 333 332 326 324 322 323 318 315 314 314 314
339 341 345 343 343 345 348 351 352 349 345 342 340 338 343 348 346 344 342 343 346 343 341 341 339 338 340 342 337 336 330 330 333 332 338 337 341 336 338 338 336 338 342 336 330 334 339 341 340 338 340 344 339 331 329 329 331 331 332 335 333 336 335 334 334 335 337 337 333 334 335 334 334 335 333 329 325 324 322 321 319 316 313 313 312 312 312
341 342 343 345 345 346 350 349 346 344 343 342 341 342 342 347 347 348 348 350 350 345 341 340 340 342 346 343 342 337 338 333 325 329 331 333 334 335 335 333 333 346 341 336 333 342 343 345 338 340 340 343 337 331 332 330 334 333 334 338 336 337 338 340 339 337 337 339 338 335 335 334 329 326 323 322 321 319 317 315 313 312 310 310 310 311 310
342 342 344 347 347 349 349 346 344 343 342 344 345 345 344 343 343 345 348 349 348 346 338 336 339 343 342 344 341 334 337 341 345 338 336 332 332 334 333 338 343 346 339 332 329 337 344 342 339 340 341 341 331 333 332 333 335 336 336 337 339 337 337 336 336 337 336 330 328 326 325 323 322 321 320 317 315 314 313 311 311 310 309 310 310 311 310
344 346 345 347 347 348 347 344 339 340 344 343 344 343 342 340 340 339 339 336 338 341 337 337 337 342 342 337 336 338 346 344 342 342 337 336 337 342 338 342 344 344 341 332 333 339 347 342 343 343 340 341 333 332 334 338 335 336 339 342 340 333 330 330 327 326 326 326 322 321 320 319 319 317 315 312 313 313 311 310 310 310 310 312 310 310 310
349 347 347 347 348 348 346 346 344 347 346 344 344 345 342 339 336 335 335 335 338 336 336 335 336 337 337 336 335 334 341 338 336 337 336 338 342 336 341 339 343 339 339 333 334 337 339 341 338 342 338 337 333 336 338 339 338 336 338 337 336 329 327 326 324 323 322 320 320 318 317 316 315 313 311 310 310 310 310 310 310 310 309 309 309 310 309
349 350 350 348 347 348 347 352 350 346 350 347 346 344 344 341 337 337 338 341 335 332 333 335 333 336 335 334 333 333 334 333 333 333 335 341 338 336 338 341 336 333 334 332 332 342 336 336 337 340 339 337 339 337 338 336 334 334 333 330 329 326 325 323 321 320 320 320 318 315 313 313 312 311 310 310 310 310 310 311 310 310 309 310 310 310 309
Wind_Speed
13 12 15 10 11 9 10 9 7 11 12 10 7 8 9 12 8 5 13 14 11 6 5 2 5 1 1 2 2 1 5 6 6 6 7 8 7 8 9 8 8 8 9 10 11 11 11 11 12 12 12 12 11 9 8 6 5 6 7 10 9 7 9 9 8 7 7 8 7 4 5 5 4 4 6 6 7 5 5 5 5 4 3 3 2 2 5
11 14 17 16 11 10 8 9 13 11 11 11 7 5 8 8 5 15 14 12 9 4 3 3 4 4 3 3 4 4 4 4 3 4 7 11 10 7 10 9 9 9 9 10 11 13 12 13 12 11 12 10 7 9 9 6 5 4 5 6 5 8 8 8 7 7 6 6 6 5 7 5 3 2 5 3 6 5 4 3 1 1 3 2 3 2 3
12 13 16 13 7 10 16 3 6 8 7 11 14 15 9 11 9 15 9 10 6 4 3 3 4 3 3 4 7 10 10 8 4 3 2 7 8 7 8 10 11 11 11 11 11 12 13 12 11 11 12 12 8 8 9 8 6 8 6 5 5 9 8 7 7 7 6 7 6 5 6 4 3 3 5 3 4 5 3 3 2 3 2 1 2 1 4
12 14 15 15 10 12 13 13 10 7 8 8 10 12 10 7 5 9 11 6 3 3 2 1 1 1 4 6 7 5 7 13 13 12 7 3 5 9 8 10 11 11 10 10 10 9 11 13 12 9 8 10 8 7 7 5 4 6 4 4 7 7 6 7 7 7 6 7 6 6 6 4 3 3 2 5 2 5 4 3 1 2 3 2 2 4 3
10 13 14 11 6 7 9 8 7 9 5 6 9 10 7 11 14 9 4 2 2 6 5 5 4 2 6 8 7 8 11 5 2 4 10 10 6 7 8 13 12 11 11 11 12 11 10 10 9 10 11 11 9 8 8 8 5 4 4 5 6 6 6 7 7 6 6 7 6 6 5 4 3 3 2 6 2 4 3 4 3 2 2 2 2 2 2
8 12 1 2 6 7 4 7 10 8 12 8 9 6 5 12 4 4 5 3 6 5 4 1 2 4 6 4 4 6 7 7 5 7 10 10 6 7 7 12 14 14 11 10 11 11 10 10 9 10 10 10 9 8 9 8 6 6 6 6 6 6 6 7 6 5 8 7 6 6 5 5 4 5 3 5 4 3 2 2 3 4 4 3 2 2 3
9 6 5 6 7 5 4 4 4 3 6 7 8 7 1 5 7 12 6 6 6 5 4 5 6 6 7 5 5 7 5 7 8 10 11 6 6 5 8 12 14 14 14 13 12 11 11 11 11 11 10 11 10 9 10 9 8 7 6 7 6 6 7 7 6 6 8 6 7 6 5 5 4 5 4 5 4 4 5 3 2 2 3 4 2 3 2
6 6 5 8 5 3 8 3 3 6 5 8 7 5 15 9 4 3 3 7 7 6 8 9 9 8 5 6 6 3 3 4 0 6 3 4 3 6 8 11 14 16 15 15 14 12 12 12 11 11 11 11 11 11 11 10 8 8 8 7 7 7 7 7 6 6 7 6 6 5 5 5 6 5 4 4 4 3 3 4 6 5 3 2 3 3 3
9 6 6 2 6 4 5 11 3 5 5 8 8 5 5 9 5 9 8 8 6 8 9 10 8 5 3 4 2 2 2 8 8 5 1 3 7 7 8 13 14 15 14 14 14 13 12 12 13 13 12 12 12 12 11 11 9 9 8 8 8 7 7 7 6 6 6 6 7 6 5 6 5 4 5 3 3 2 2 4 3 6 5 3 4 4 3
9 8 7 6 4 4 6 5 3 9 3 6 6 4 2 9 10 6 6 8 8 8 10 8 6 4 2 2 2 4 7 2 4 3 8 8 4 7 6 14 16 13 12 12 13 13 14 14 13 12 13 12 12 12 11 10 10 9 9 8 8 7 7 7 6 6 6 6 7 7 5 7 7 4 4 4 3 3 3 3 3 3 3 5 4 3 4
7 8 8 8 5 1 1 10 11 8 4 7 9 5 4 6 6 11 9 7 9 10 9 9 5 2 2 2 1 2 3 2 6 6 9 3 4 6 12 16 15 15 13 13 13 14 14 14 12 13 14 14 13 12 11 11 10 10 9 8 8 8 8 7 7 7 6 6 6 6 6 4 6 3 5 4 4 2 3 3 3 2 4 3 2 3 3
8 8 7 8 5 3 8 4 4 8 2 1 4 8 1 1 3 3 6 7 10 10 9 6 5 3 3 1 2 4 3 6 9 6 3 3 3 8 12 13 15 14 13 12 13 14 14 15 14 14 14 13 13 12 12 12 11 11 10 9 9 8 8 8 8 8 8 7 9 8 7 4 3 4 4 4 3 4 3 3 4 4 4 4 4 3 2
10 10 8 7 3 4 4 7 6 2 3 3 8 4 2 4 2 5 5 7 9 9 9 6 4 1 1 0 1 5 6 5 9 7 10 8 6 7 11 12 14 13 12 12 13 14 13 15 14 14 13 13 13 12 11 10 11 9 9 9 9 9 8 8 6 5 8 5 5 4 5 5 6 4 3 4 3 4 4 5 4 4 4 4 1 2 3
11 8 10 7 2 1 8 1 2 9 4 4 3 3 2 3 3 4 5 9 8 7 7 4 6 4 1 3 3 8 3 2 4 5 8 8 8 8 10 11 11 10 11 13 13 13 14 15 15 14 13 12 12 11 10 11 10 9 9 9 9 9 9 9 8 6 5 7 5 5 5 4 4 2 3 3 4 4 4 4 5 5 4 4 3 3 3
9 9 8 8 6 3 7 6 5 8 4 5 3 2 5 0 7 3 4 4 9 6 6 7 7 8 6 4 1 6 8 2 6 8 8 10 11 11 10 10 9 9 10 12 14 14 14 15 14 13 13 13 11 11 12 11 10 9 9 9 9 9 7 6 7 8 5 6 6 6 5 4 4 4 3 4 4 4 4 5 5 5 5 4 3 3 4
10 9 7 2 4 1 0 6 3 1 5 5 4 5 7 3 3 6 1 5 6 4 6 7 6 6 6 3 5 9 5 2 4 5 8 9 11 11 10 10 9 9 9 9 12 13 13 13 13 13 13 12 10 12 13 10 9 9 10 9 9 9 8 8 6 7 8 6 5 4 5 4 3 3 4 4 4 4 4 5 5 4 4 5 4 4 5
3 4 5 8 6 6 5 3 8 6 8 7 5 8 7 8 5 5 7 9 7 3 6 9 7 3 2 1 3 4 3 12 10 9 9 10 9 9 11 10 10 10 9 10 10 13 12 14 11 10 10 11 12 14 11 10 9 10 11 10 9 9 9 8 7 6 7 6 5 4 6 5 4 4 5 5 6 5 5 5 4 5 5 5 5 6 6
4 5 6 8 6 2 5 7 1 4 6 3 4 1 9 1 4 0 9 3 4 8 7 6 7 6 3 5 6 8 6 4 3 8 9 9 8 8 9 10 10 9 10 9 10 13 12 12 10 9 10 12 13 11 11 10 10 11 9 9 9 10 9 7 7 5 5 5 5 5 5 5 5 4 5 5 5 5 6 5 5 6 5 5 6 5 5
6 2 5 6 3 0 2 9 5 8 8 5 6 8 3 3 1 2 5 6 6 8 7 8 5 10 6 4 7 6 5 7 7 9 8 8 11 10 10 9 9 9 11 9 8 10 13 12 11 11 11 11 11 10 9 11 11 10 8 8 8 7 7 7 7 6 7 5 5 5 5 5 4 4 5 5 5 6 6 6 6 7 6 6 6 5 6
4 4 7 4 7 10 6 7 8 5 3 14 10 3 3 5 4 4 7 7 10 8 9 8 7 9 7 6 6 6 7 7 8 7 7 6 8 9 10 10 10 10 10 11 11 9 9 9 8 9 9 10 11 12 11 12 11 10 10 9 10 10 11 9 7 8 7 9 8 5 5 5 5 6 6 6 7 6 6 6 7 7 6 6 5 5 6
8 5 13 12 7 1 1 4 3 3 7 6 7 5 1 7 3 3 5 7 2 6 11 7 3 4 6 8 6 5 11 8 8 7 7 6 7 9 8 8 8 8 10 11 11 9 7 6 7 6 8 8 9 11 10 10 9 10 9 11 9 10 9 7 7 7 7 8 6 7 5 6 6 5 5 7 8 7 8 9 8 7 6 5 4 4 6
10 7 6 11 5 4 4 7 9 6 9 8 6 5 12 1 5 2 3 6 3 12 8 7 6 7 6 4 3 7 9 9 9 7 6 7 9 10 7 5 7 8 8 11 12 11 8 7 5 5 6 6 6 9 9 9 11 9 9 9 10 8 6 6 7 8 7 8 7 7 8 7 6 6 9 11 4 2 3 5 7 6 3 3 2 2 4
3 6 8 4 2 2 5 4 4 14 6 4 5 6 9 5 6 4 2 4 5 5 5 2 5 4 4 6 8 11 7 8 9 9 9 9 8 7 6 6 8 7 8 10 11 10 9 7 7 6 6 8 8 10 9 8 8 9 9 8 7 6 6 7 8 8 9 10 9 7 6 7 8 7 6 8 12 12 10 9 8 8 5 6 7 6 3
12 7 8 5 3 6 7 12 12 5 4 2 4 3 2 2 4 2 1 7 5 6 4 2 4 6 5 5 7 11 11 9 9 8 8 9 9 8 7 7 8 9 10 10 11 10 9 8 8 7 9 10 9 9 8 9 10 9 8 8 7 6 8 8 10 9 7 6 6 9 5 3 4 5 5 5 6 11 14 12 11 10 10 10 10 10 10
7 9 9 7 4 2 3 8 3 5 6 10 10 4 2 5 4 5 7 7 6 6 6 6 7 4 6 8 7 9 10 10 9 10 9 8 8 9 9 9 10 9 9 8 8 9 9 8 9 10 9 8 8 8 7 9 10 10 9 8 8 8 9 7 4 4 5 4 1 6 7 6 6 4 4 4 5 5 9 13 14 14 13 11 11 11 12
10 9 8 4 6 6 4 3 5 8 6 8 7 7 9 9 7 6 6 2 7 9 8 7 7 6 7 7 6 8 8 10 10 9 9 8 8 9 10 10 10 8 8 9 8 8 8 10 10 10 8 9 9 9 11 10 10 9 10 9 10 10 8 7 6 4 4 2 3 3 5 6 6 5 5 5 4 5 3 5 7 9 9 12 13 13 14
9 10 10 7 4 3 4 4 3 6 5 9 7 5 5 6 7 6 5 6 8 9 9 10 6 6 6 6 7 7 6 10 11 9 7 8 9 10 9 10 9 9 9 8 7 8 9 9 9 9 9 9 11 9 9 9 8 9 9 9 7 8 12 8 5 5 3 3 4 3 4 3 2 3 4 4 4 4 4 5 5 4 5 7 13 18 16
7 5 5 6 5 1 5 7 6 6 8 8 7 7 8 7 7 7 8 9 10 10 8 7 6 6 6 5 5 6 8 8 6 5 4 6 4 9 10 13 10 9 9 8 7 7 8 8 8 9 9 9 8 8 9 9 8 8 8 8 8 5 3 5 4 5 5 4 4 4 2 3 4 4 3 4 5 5 5 6 6 7 7 7 6 9 19
5 4 3 3 6 13 12 7 6 5 5 7 10 7 8 9 9 8 10 9 8 7 6 7 6 5 6 6 6 6 6 7 6 7 5 3 6 11 11 13 11 11 10 9 8 8 8 8 9 8 8 10 10 10 10 10 9 9 8 7 4 3 4 3 2 2 2 4 6 5 4 4 4 5 5 5 4 5 4 3 3 4 5 5 4 5 4
5 5 3 2 6 4 6 8 8 7 7 6 7 6 7 9 9 8 8 8 7 6 7 6 5 3 4 6 6 6 7 8 6 5 7 6 7 9 9 10 10 9 8 8 9 9 9 8 7 7 9 11 11 11 11 9 7 5 5 4 4 4 5 7 4 4 3 3 4 5 4 3 4 4 4 4 5 4 4 5 5 4 5 5 5 5 6
4 5 4 3 9 9 9 8 6 7 7 7 6 7 8 9 9 9 9 8 6 6 6 6 5 6 5 5 4 4 5 6 6 6 5 5 6 7 11 10 10 9 8 8 9 8 8 8 8 7 6 7 9 9 9 8 6 6 5 4 4 5 7 6 9 5 6 4 4 4 5 5 5 4 5 5 5 4 5 5 5 6 5 5 4 5 5
7 9 11 13 14 11 9 7 6 6 5 6 6 7 9 13 7 9 10 8 8 8 6 6 6 5 6 6 5 3 6 7 4 4 6 7 6 5 7 7 8 9 9 9 8 7 6 5 6 6 5 5 7 7 9 8 7 6 7 6 6 5 4 2 4 5 3 3 4 5 4 5 6 6 5 5 5 5 5 6 7 6 5 5 5 5 4
5 10 13 12 9 10 10 8 6 6 6 7 4 5 7 10 8 8 8 8 8 7 7 6 4 5 6 4 5 6 6 6 6 6 6 7 7 7 7 6 8 8 8 8 8 7 7 7 7 7 6 7 9 7 9 9 7 6 5 6 5 5 6 7 6 5 5 4 4 4 4 4 4 4 5 4 4 4 5 5 5 5 6 5 5 5 4
9 10 6 7 7 9 10 8 6 5 5 5 6 5 6 10 10 11 10 7 7 6 6 5 5 5 5 5 5 5 6 7 6 6 7 6 7 6 6 7 8 9 8 8 8 6 6 6 6 7 7 6 6 8 8 9 7 5 4 4 5 4 6 7 7 5 4 5 5 5 4 4 4 4 4 5 5 5 5 5 5 4 5 6 5 5 7
11 13 8 9 9 10 12 9 7 7 6 5 8 6 5 10 11 10 9 7 7 6 6 5 6 5 6 6 6 6 5 5 5 7 7 7 7 7 6 7 8 7 7 7 6 6 7 8 5 8 7 8 7 7 7 8 9 7 6 6 6 5 5 7 7 7 5 5 4 4 4 5 5 5 5 5 5 5 5 4 5 5 6 6 7 5 5
14 12 8 6 6 8 12 10 8 9 7 6 8 8 8 10 12 11 9 9 9 7 5 5 5 6 6 6 6 7 7 8 5 6 9 7 7 6 6 7 7 7 7 7 7 7 8 6 6 11 8 8 9 9 9 10 9 8 6 6 5 5 5 7 8 7 5 4 4 4 4 5 5 4 4 4 5 5 5 4 5 6 6 7 4 3 3
11 6 4 4 3 4 9 7 8 6 6 3 5 8 11 13 12 10 10 9 8 7 6 6 6 5 6 6 6 5 3 4 5 6 7 7 7 6 6 7 7 8 7 7 7 7 6 8 5 7 7 6 10 7 7 6 1 6 8 8 7 5 4 5 4 4 4 5 5 4 4 4 4 5 4 5 6 6 5 6 5 6 5 2 2 2 4
9 7 5 4 4 4 7 7 8 7 6 8 9 9 11 10 9 10 9 9 9 7 6 5 5 4 3 3 6 5 4 3 5 6 9 7 6 6 6 6 6 7 7 6 7 8 5 9 12 6 6 6 5 3 9 10 6 3 2 4 3 3 4 4 3 4 4 4 5 5 4 5 5 5 5 5 5 5 5 6 3 3 3 3 2 2 3
7 5 4 3 3 3 5 7 6 6 8 11 11 9 9 10 10 10 9 9 8 8 7 5 5 4 4 4 2 4 4 4 6 9 8 8 7 6 6 5 5 6 5 6 9 4 9 11 8 6 5 5 6 4 9 10 11 4 3 3 5 4 5 5 5 4 4 3 3 4 4 5 5 5 5 6 4 6 2 6 3 2 2 1 3 3 3
7 6 6 6 5 3 2 5 4 6 9 10 12 10 10 9 9 9 10 8 7 6 6 6 5 4 4 3 3 4 4 5 8 8 7 6 6 5 5 6 6 7 7 10 8 7 10 12 9 6 5 5 8 4 8 10 10 4 4 4 5 5 4 4 4 5 4 4 4 5 4 4 5 6 5 4 4 1 3 1 2 3 5 5 3 3 3
5 5 5 3 4 3 3 4 5 8 9 10 10 9 8 7 6 6 10 10 8 6 5 6 5 5 5 5 5 5 4 7 7 7 7 6 7 7 7 7 7 8 6 5 3 8 10 7 6 5 6 6 8 5 6 8 6 3 3 3 4 5 5 5 4 4 3 4 4 4 5 6 7 7 3 3 6 3 2 2 3 3 3 4 4 3 3
7 4 2 3 3 3 4 4 6 11 9 8 9 9 9 9 9 4 4 9 8 7 6 7 6 6 6 5 6 5 5 7 5 8 7 6 7 7 7 7 6 3 9 7 7 8 5 7 5 5 5 6 3 12 12 7 5 4 3 3 4 4 4 4 4 4 4 3 4 4 3 3 1 5 4 2 2 1 2 3 3 3 3 4 5 5 4
10 9 7 5 3 5 7 4 10 11 10 9 9 8 7 7 7 6 7 5 7 6 7 5 7 7 6 6 5 5 6 7 8 8 6 7 6 4 3 6 6 7 13 7 6 5 6 4 4 5 5 4 5 15 13 8 5 4 4 4 3 3 3 3 3 3 3 3 3 3 1 5 8 5 3 4 3 3 4 3 1 3 6 6 3 4 4
11 9 8 6 6 5 4 7 10 9 9 9 7 7 7 5 5 6 9 7 6 6 6 6 8 7 6 6 7 6 6 6 6 6 6 6 5 7 5 5 3 9 13 6 5 5 5 5 6 7 10 12 14 14 5 4 5 4 4 4 4 4 4 4 3 3 3 3 3 6 9 8 6 4 4 3 3 3 4 6 6 2 3 4 4 4 5
9 7 9 8 6 5 6 7 9 9 7 7 7 7 6 6 6 6 8 7 7 8 6 6 7 7 7 8 6 6 5 6 6 5 6 8 7 7 6 8 7 6 6 8 4 4 5 2 9 13 11 12 14 13 5 3 4 4 4 4 4 4 3 3 3 2 3 7 9 7 6 6 6 4 0 1 2 2 7 6 5 4 4 5 5 6 5
10 8 10 10 8 6 6 8 7 7 7 8 8 7 6 5 5 5 6 6 5 8 8 6 6 7 5 8 5 6 4 5 7 8 5 2 1 5 7 8 6 5 8 8 4 4 2 12 15 12 13 13 10 6 3 3 4 4 5 4 4 3 2 3 6 8 7 5 3 4 5 3 4 2 3 4 7 4 1 4 4 5 6 5 4 5 5
9 9 9 9 8 8 8 6 5 8 8 7 5 6 5 5 4 4 5 5 5 6 7 8 8 8 6 5 5 7 5 6 5 5 4 5 7 8 8 8 9 10 8 5 5 3 7 7 10 12 12 11 10 4 4 4 4 3 2 2 3 6 6 5 4 3 3 5 5 3 3 3 1 2 6 5 2 4 3 3 3 5 5 4 4 4 5
12 11 11 9 9 8 7 7 7 8 8 6 6 6 6 5 4 3 4 4 5 4 4 5 6 5 5 4 8 6 6 6 7 7 5 4 7 8 7 6 5 9 8 7 6 6 11 8 10 11 12 11 6 4 4 3 3 1 3 7 6 4 4 4 5 4 3 4 4 3 2 3 2 3 3 3 3 3 4 4 5 5 5 4 3 3 3
9 10 11 10 10 9 8 8 8 7 6 6 6 6 6 4 3 3 2 1 3 5 7 9 8 6 6 4 6 6 5 4 1 1 5 4 3 9 7 8 11 11 7 4 6 5 11 12 11 11 11 10 4 3 4 1 5 6 4 4 5 5 4 4 4 3 4 6 6 5 5 5 4 2 3 4 4 5 6 5 5 5 4 3 2 3 3
9 10 9 9 8 8 8 7 7 6 6 5 7 7 7 6 3 1 3 1 5 7 6 6 6 6 5 5 5 6 6 5 6 2 2 2 2 3 5 8 7 8 8 5 6 5 8 11 9 10 7 4 4 4 2 7 4 3 4 4 4 6 5 5 6 7 6 6 6 6 5 3 3 4 5 6 7 5 4 4 3 3 3 2 2 2 2
7 8 8 8 8 7 8 6 5 6 5 5 6 8 9 8 6 6 7 9 10 10 8 8 6 6 6 5 7 5 5 5 4 3 2 3 2 4 9 6 6 5 4 4 4 6 7 6 5 6 5 4 2 3 5 5 5 4 5 3 2 6 6 5 5 6 6 5 4 4 4 4 6 7 6 5 4 4 2 2 2 1 2 2 2 3 3
7 6 5 5 4 5 5 4 7 8 6 6 6 7 9 9 10 11 11 14 11 9 8 8 7 6 7 6 6 6 6 4 4 4 3 3 4 3 7 10 7 5 4 4 4 4 5 4 6 7 5 3 6 7 7 8 6 7 6 4 5 6 6 6 6 6 5 4 5 5 7 6 5 5 4 3 2 2 2 2 1 2 2 2 3 3 3
Wind_Direction
246 242 264 225 210 244 288 275 250 219 206 213 227 275 301 321 303 4 91 87 99 102 83 88 102 80 27 48 14 73 128 142 132 129 134 135 132 137 131 138 135 126 133 131 119 115 115 102 96 100 108 120 146 145 124 127 155 151 141 152 170 159 126 139 149 151 143 143 150 160 124 134 171 157 142 149 126 137 141 210 244 135 178 155 216 156 146
249 251 248 252 305 306 238 281 314 322 297 281 293 254 232 255 315 79 80 84 94 83 79 94 79 53 27 32 39 30 55 74 99 125 153 147 154 171 148 149 150 140 138 135 122 125 120 112 114 121 124 124 137 134 129 135 153 145 153 162 162 132 136 143 148 137 143 139 143 160 127 149 175 156 127 177 135 145 145 243 170 34 30 40 303 227 174
263 246 256 281 234 255 285 312 269 264 297 320 302 282 298 347 55 93 78 99 87 59 6 354 38 18 18 18 35 27 35 12 24 93 130 165 160 163 179 146 149 152 156 139 127 123 124 122 129 136 137 139 146 137 139 155 157 144 167 172 132 133 141 146 127 129 135 130 141 134 133 153 179 163 146 170 121 130 137 240 164 97 304 173 266 350 344
254 234 239 228 215 239 242 237 241 270 316 315 334 327 343 336 329 100 72 82 77 151 194 113 74 59 33 32 48 46 37 18 12 355 325 217 187 161 173 147 146 153 144 137 118 122 133 142 145 140 132 137 128 132 128 124 135 148 164 142 128 130 134 122 119 131 141 131 139 129 143 157 169 172 169 137 189 136 155 214 181 184 160 278 327 348 331
272 277 227 231 242 272 274 299 317 353 319 259 280 268 281 47 48 51 8 145 153 153 167 158 124 81 54 45 27 58 80 111 355 324 303 306 215 179 165 142 145 152 150 128 127 141 147 148 144 143 140 138 137 134 130 131 144 129 131 127 123 125 123 121 123 147 128 132 134 137 150 152 172 142 207 144 207 137 179 173 187 240 131 222 186 231 296
264 271 263 184 265 252 286 18 327 278 269 327 324 352 34 79 40 43 326 65 125 155 166 72 90 72 73 70 117 136 143 127 185 234 250 234 204 184 166 148 151 146 129 131 142 156 154 142 130 139 138 134 134 135 125 127 127 145 143 132 128 127 124 122 134 143 120 136 140 154 174 146 190 144 223 129 166 164 262 202 185 167 233 200 221 158 236
253 272 296 262 244 252 334 144 235 140 311 329 298 344 33 68 103 149 147 135 146 142 107 106 108 89 76 51 85 113 132 159 163 215 212 201 200 166 176 151 146 145 145 150 148 153 158 140 132 137 138 139 137 127 128 136 153 155 132 131 132 129 128 132 148 144 137 157 156 154 162 145 186 149 215 145 191 179 189 201 207 219 190 230 211 189 220
253 263 234 254 268 148 224 243 223 41 284 253 273 293 350 319 349 172 142 128 139 115 104 109 105 110 136 127 96 77 67 33 61 261 227 249 189 187 152 157 148 147 152 155 157 154 155 145 141 144 144 146 140 137 145 152 154 148 140 140 140 140 140 151 161 152 152 148 144 153 159 161 170 182 193 148 200 204 214 192 185 177 210 206 247 211 195
267 233 248 247 87 330 246 254 277 339 339 11 333 47 211 323 2 75 73 107 105 92 90 76 75 94 83 67 19 90 93 231 230 273 346 247 229 157 145 136 138 144 151 152 151 149 151 154 150 150 149 150 149 150 154 156 153 149 148 147 148 147 148 161 159 149 153 150 151 156 168 163 210 190 155 156 199 231 217 263 232 179 175 212 217 210 214
225 257 248 218 210 225 253 5 96 236 280 353 333 351 133 89 65 26 64 95 77 93 88 84 92 81 103 340 56 162 186 220 98 352 359 358 57 143 149 122 134 139 142 146 144 150 154 158 156 149 152 154 152 155 156 156 154 150 151 151 148 150 153 156 154 146 159 161 153 162 196 167 194 192 148 150 211 190 241 243 267 265 203 205 213 206 200
215 227 255 267 256 137 284 255 252 267 338 289 340 273 69 343 93 127 137 134 129 124 130 131 142 110 13 13 6 354 83 150 87 33 31 21 210 117 118 126 138 142 142 145 146 152 155 150 152 154 158 156 153 159 159 157 155 152 152 149 149 152 151 153 157 158 150 169 156 161 191 206 175 184 152 167 191 235 237 256 264 297 293 273 246 238 205
250 257 236 237 239 178 193 247 208 252 71 310 235 256 111 223 61 62 97 136 146 147 139 136 130 162 232 159 63 41 44 70 72 80 40 276 150 124 126 136 136 135 135 140 149 154 156 152 152 157 159 159 161 162 161 157 156 157 156 153 152 147 154 158 165 154 172 200 159 175 164 159 197 236 154 164 166 220 229 237 238 230 247 254 243 260 210
225 235 248 258 116 148 243 262 252 195 134 274 280 325 131 180 148 98 97 96 122 126 135 173 137 128 231 351 93 87 75 73 107 170 182 175 150 149 138 130 128 133 144 150 156 158 155 156 155 160 162 163 164 162 158 159 162 161 154 157 148 151 154 155 167 166 149 142 145 156 148 170 201 211 145 163 197 215 219 237 254 245 238 254 322 353 308
235 227 241 256 92 356 323 352 335 48 316 273 12 176 137 139 144 108 97 124 129 145 160 144 108 167 204 307 131 121 133 162 110 143 121 128 128 127 127 122 136 147 150 151 154 157 153 162 161 166 167 164 164 159 162 162 166 159 151 155 152 149 167 159 151 141 156 143 160 157 154 167 180 167 170 200 210 219 238 235 241 252 273 281 297 304 296
245 244 257 246 228 17 7 41 326 8 339 69 358 360 230 113 126 123 135 141 137 148 113 87 97 132 133 115 28 66 69 240 178 163 149 125 126 126 133 145 148 156 152 157 154 156 159 164 166 170 174 165 167 165 169 170 160 156 150 155 152 157 162 148 143 148 153 141 170 164 154 172 180 196 180 211 214 233 229 241 248 243 249 263 269 268 269
237 225 235 18 40 189 332 291 111 172 124 133 128 301 270 266 162 148 131 129 133 114 102 121 89 83 99 88 97 116 166 325 0 183 141 139 138 144 152 153 158 156 159 163 153 151 161 165 171 172 176 165 162 170 170 162 168 153 152 158 157 163 162 157 169 150 151 169 183 144 143 147 193 207 201 206 228 236 237 240 239 249 258 258 265 262 260
2 90 128 172 177 247 263 311 133 156 132 122 101 243 303 110 179 137 125 122 141 164 61 99 105 59 353 72 34 62 193 163 197 159 148 143 161 160 161 154 152 153 160 158 148 152 161 165 170 171 169 166 170 173 169 163 177 155 155 160 163 166 163 160 171 193 154 181 150 159 150 172 178 209 217 214 226 223 234 234 242 255 250 240 229 234 243
106 126 113 131 183 216 325 296 30 258 148 93 221 105 85 166 91 105 126 172 144 122 116 115 140 159 204 165 165 181 183 115 144 147 146 149 156 161 152 150 159 157 152 155 156 150 162 173 166 169 169 165 166 171 164 167 163 152 156 156 165 167 162 159 166 176 170 183 162 164 163 170 196 203 218 210 219 229 224 233 243 250 248 252 262 257 245
225 100 291 252 295 345 319 318 332 24 330 92 79 31 360 33 287 60 82 118 152 123 142 145 131 106 195 232 221 169 126 143 151 149 153 164 158 162 163 157 165 156 147 156 162 167 161 174 173 172 178 165 164 163 155 146 145 148 153 159 163 156 157 159 172 180 183 181 181 181 182 173 197 206 218 211 214 227 224 222 229 230 232 237 243 257 258
223 190 175 57 355 65 29 22 355 0 352 62 63 62 316 327 353 89 146 178 114 165 154 129 131 146 161 190 197 166 149 150 140 150 156 156 153 153 153 156 173 161 152 161 160 166 160 161 168 177 182 177 170 161 147 158 149 152 160 171 173 171 167 170 171 184 185 195 193 178 187 195 209 210 209 217 214 214 228 229 228 231 238 237 235 242 261
237 116 108 122 130 115 352 115 121 284 10 83 82 53 219 219 143 90 68 38 113 112 100 103 99 173 168 168 177 184 128 149 141 156 155 149 133 134 143 155 162 167 156 155 158 148 150 143 163 171 176 178 170 164 151 154 148 160 169 181 188 179 181 169 174 188 193 188 197 204 185 189 213 234 223 207 218 223 205 211 215 227 234 227 218 243 260
223 218 153 137 146 163 234 245 238 137 70 42 53 313 272 135 111 80 93 123 52 100 112 141 191 144 168 159 103 103 130 133 134 127 144 144 137 134 141 169 162 165 157 150 149 144 145 154 157 173 175 154 165 166 164 172 158 168 178 186 188 184 172 183 180 184 202 204 194 208 198 197 206 213 247 264 259 277 306 31 24 32 31 270 275 327 315
286 95 135 134 160 216 176 256 110 100 108 131 218 206 264 145 147 127 250 117 112 111 109 80 119 106 136 144 155 133 119 121 122 145 151 147 140 136 146 154 160 159 150 151 153 143 149 153 156 175 158 164 172 172 178 176 168 168 184 188 183 164 170 187 198 196 204 206 187 194 199 182 196 214 209 224 249 243 246 255 257 267 262 281 295 289 265
59 48 132 199 313 40 9 69 83 88 2 108 211 206 292 70 97 138 101 75 81 92 77 63 85 115 129 129 103 113 118 124 137 150 148 141 142 143 155 143 143 141 140 144 143 147 152 168 164 174 173 175 175 176 178 175 181 177 183 184 174 168 182 202 202 197 205 224 183 168 191 193 237 211 208 225 204 230 233 238 246 237 239 241 243 247 254
78 68 55 85 85 176 121 85 62 79 82 24 312 179 148 129 102 58 83 94 86 95 102 73 73 84 97 94 115 131 139 138 142 137 138 132 142 149 143 140 141 145 148 149 150 158 166 167 167 175 177 172 172 179 181 181 175 178 183 190 169 180 203 210 201 193 202 147 156 153 177 202 208 249 244 217 243 225 228 235 229 233 243 245 248 251 251
91 83 80 16 345 290 281 254 194 125 165 164 121 72 64 57 64 73 79 55 87 66 80 118 116 98 98 120 133 124 134 132 131 134 145 150 141 144 146 145 146 148 151 155 167 160 170 169 168 173 168 167 169 188 171 176 179 173 183 188 194 193 192 186 177 166 198 166 171 190 203 192 193 198 229 256 256 264 225 199 248 268 257 250 253 256 258
99 118 144 175 235 276 135 274 180 157 141 121 119 112 98 103 97 95 96 87 102 114 97 85 105 118 133 134 122 128 134 132 149 154 170 151 163 150 138 134 138 145 153 155 162 165 160 158 165 163 176 167 167 177 173 174 173 178 175 200 216 222 199 175 134 143 158 213 256 225 178 256 252 228 230 206 240 267 282 285 281 226 214 236 233 230 236
121 141 160 145 146 51 4 339 307 147 135 132 160 162 139 142 124 119 103 86 80 92 100 112 126 139 120 128 134 126 127 150 153 139 158 155 140 122 124 129 141 148 147 157 157 155 153 157 164 175 175 165 159 166 175 165 172 172 188 203 215 204 133 167 176 153 173 179 236 239 197 216 226 246 241 255 238 212 222 234 235 246 256 252 248 218 222
138 166 202 170 178 166 191 173 183 162 161 185 175 160 167 147 114 102 89 78 87 100 128 142 142 143 148 147 133 141 153 147 152 151 150 121 114 107 125 139 148 148 141 156 152 158 157 168 170 165 156 160 167 173 171 167 166 183 187 204 191 144 160 129 188 208 225 179 192 225 207 195 225 220 227 237 253 277 295 283 274 287 277 278 272 277 208
185 172 200 45 343 219 182 164 191 187 184 187 182 176 160 127 117 117 118 126 139 137 126 124 131 152 173 144 144 160 168 153 148 140 133 168 141 137 142 131 129 130 140 144 147 162 176 174 171 166 165 168 174 174 174 166 178 165 163 168 191 205 185 163 171 194 246 243 228 192 211 234 218 242 250 241 240 236 242 248 260 274 288 295 292 290 287
173 117 120 119 245 210 171 171 170 187 183 168 189 174 130 108 104 110 115 115 119 120 128 140 150 186 159 125 148 171 154 127 132 137 125 107 103 116 113 125 133 143 149 151 158 165 176 178 171 172 157 172 156 184 159 146 169 165 173 172 199 83 48 140 160 190 202 216 222 220 218 213 232 228 232 245 255 252 247 255 263 262 257 258 273 291 292
148 170 199 207 218 186 151 133 187 181 172 167 191 156 131 125 141 132 130 137 137 131 145 144 165 159 126 140 172 187 116 128 140 132 134 131 131 125 127 136 138 137 146 152 161 164 166 151 153 147 150 190 154 204 146 161 155 181 185 173 190 200 174 131 193 190 232 220 205 207 212 228 228 221 227 231 238 245 253 258 255 252 253 264 271 273 272
191 207 214 214 193 170 153 165 185 169 192 181 164 129 126 119 129 128 119 124 135 150 152 141 140 118 121 125 112 118 135 140 150 154 151 149 150 151 149 152 143 144 148 157 161 161 163 160 164 154 169 196 164 199 152 156 165 186 186 169 202 197 169 179 208 200 207 234 255 241 224 216 228 243 248 253 249 256 277 287 291 289 288 291 292 284 282
256 257 236 191 199 152 150 159 180 147 211 171 126 119 110 119 124 126 130 142 139 152 132 124 109 122 137 137 134 137 153 157 151 166 160 165 163 162 162 157 143 151 152 157 158 164 163 180 181 151 178 201 191 189 182 171 173 195 184 201 203 213 166 179 191 211 214 217 223 243 257 273 253 239 238 233 241 250 253 258 272 290 299 292 289 289 280
243 259 228 192 205 169 156 160 176 163 190 179 138 138 118 112 123 131 139 147 135 124 121 139 132 154 166 163 160 170 173 171 187 156 158 165 171 168 173 151 147 148 156 165 164 158 174 191 168 155 184 196 212 215 185 203 175 185 183 200 195 227 169 176 188 201 217 225 225 225 224 227 241 260 270 282 291 293 291 284 287 285 286 282 274 292 301
217 221 214 201 203 185 149 164 166 173 179 202 146 133 121 126 129 137 142 130 129 138 143 138 164 186 160 158 186 182 188 188 177 152 150 169 171 173 169 151 152 155 162 164 180 191 174 172 182 161 183 207 204 216 199 194 181 179 185 192 209 208 199 183 182 185 190 212 227 236 241 242 242 234 236 242 246 246 257 264 266 272 275 281 326 31 312
219 216 188 172 208 232 153 147 160 169 175 149 136 143 121 127 137 133 127 137 142 139 147 165 173 178 159 166 205 205 173 221 168 169 155 161 172 174 175 161 170 164 170 170 188 203 170 158 161 194 200 219 243 222 99 110 184 173 175 200 204 200 222 219 188 184 191 184 215 234 246 259 252 249 247 247 254 253 256 267 269 265 276 349 26 331 336
195 175 166 165 187 239 144 149 157 145 161 125 103 101 130 138 148 138 150 143 142 149 167 172 157 156 143 203 218 153 205 215 132 131 128 147 162 176 173 169 173 163 184 178 190 195 184 147 162 203 224 250 248 206 137 143 164 272 246 216 222 207 218 241 231 208 216 210 189 202 226 242 256 262 262 250 240 240 253 268 301 1 26 334 323 328 323
161 154 159 155 168 263 132 143 158 171 146 117 120 128 128 150 147 153 148 144 148 152 181 141 145 176 161 219 175 144 189 163 152 127 140 147 161 167 174 170 189 189 184 179 207 187 130 147 170 192 221 255 252 194 147 151 170 188 212 222 210 225 225 217 231 229 219 213 210 218 217 227 234 247 249 258 270 270 292 60 48 282 275 280 313 331 341
158 159 154 172 167 207 124 127 154 122 129 140 131 126 140 147 164 154 141 159 145 168 162 153 167 160 155 195 152 175 182 130 112 129 145 150 145 168 174 181 206 204 211 189 193 144 149 156 168 191 206 238 249 190 153 166 175 191 181 220 217 215 227 240 228 226 225 210 214 213 234 247 250 251 254 256 268 13 72 105 309 338 327 316 293 266 264
170 147 162 161 139 179 148 161 130 110 106 107 119 125 134 150 150 169 164 160 147 177 163 148 170 152 164 167 179 167 160 140 154 151 129 152 157 180 186 177 207 192 152 193 171 139 153 161 194 183 207 223 252 148 143 160 174 225 190 201 228 227 221 212 237 245 250 237 225 224 224 223 226 234 270 9 44 36 329 339 294 311 311 302 306 296 282
142 162 200 128 147 165 165 183 129 113 112 122 132 139 154 167 163 156 102 133 153 181 143 157 162 153 164 174 156 159 160 127 127 126 155 167 182 186 198 168 197 141 108 107 120 145 170 174 203 221 223 197 193 138 153 163 194 238 249 218 231 236 249 245 225 222 229 252 272 273 280 273 320 66 92 141 161 152 320 321 353 322 312 305 289 295 306
157 156 161 178 180 178 182 161 114 124 132 138 140 154 164 170 129 128 133 147 166 146 143 158 139 151 174 159 136 171 143 146 146 160 173 178 199 201 266 146 176 135 132 155 172 155 172 205 194 210 235 259 150 150 161 170 199 222 241 240 237 241 249 249 267 276 270 260 242 244 325 31 51 55 357 18 13 352 297 289 294 294 279 277 313 346 357
166 172 149 148 184 190 133 111 116 123 135 146 162 162 157 166 164 162 157 167 152 141 168 163 157 171 186 157 169 164 160 166 158 171 183 185 151 105 106 118 122 149 158 172 205 199 191 192 209 178 121 108 132 159 177 196 219 226 234 237 239 228 230 247 253 256 262 276 339 31 63 66 61 32 326 22 41 335 340 285 263 283 340 359 9 6 0
166 144 142 162 180 150 137 131 136 143 146 142 155 150 174 162 175 156 147 162 164 161 181 160 169 183 184 156 190 160 178 159 169 176 191 175 191 164 166 138 144 164 179 185 216 226 254 200 127 122 122 138 154 173 201 234 238 232 230 227 230 244 257 246 249 272 5 30 57 77 92 113 136 143 163 22 60 323 283 299 352 348 8 25 25 12 4
157 136 135 141 155 159 126 134 140 147 151 157 164 162 179 180 170 152 142 165 165 168 176 174 175 203 186 171 181 147 181 169 186 180 235 2 260 135 161 169 156 175 181 202 244 244 191 139 134 133 141 152 163 181 218 230 241 237 236 231 234 226 272 1 39 59 84 95 83 82 91 84 91 92 33 297 255 224 81 23 349 25 47 35 20 16 25
129 123 128 136 143 141 134 124 118 132 146 163 160 159 145 124 122 129 163 170 155 172 169 185 186 211 197 204 165 148 175 200 180 190 154 123 119 131 164 165 168 164 167 190 229 176 133 142 138 150 151 149 163 184 210 215 225 252 264 298 27 49 63 77 77 69 86 106 97 84 74 92 123 197 227 223 75 53 46 34 32 48 42 24 11 24 24
119 129 136 139 134 135 122 121 136 149 155 159 165 137 136 121 123 128 110 121 133 136 163 210 204 202 194 190 132 163 178 197 194 179 184 183 157 162 163 185 166 155 170 195 218 123 136 141 153 154 150 156 172 212 237 250 234 241 42 57 58 54 53 80 112 118 109 111 129 142 113 105 75 61 67 78 74 61 45 39 46 43 30 16 1 17 15
119 121 125 123 127 140 147 157 160 162 163 171 150 130 125 112 63 15 53 30 184 189 195 204 185 181 189 191 151 186 187 177 333 324 176 208 186 157 183 156 144 154 181 199 213 160 157 156 163 156 152 155 187 212 240 286 60 67 74 77 82 81 76 78 94 108 105 99 92 86 84 83 76 62 59 61 58 52 44 31 41 34 15 1 354 19 10
122 117 132 138 145 161 169 165 171 173 164 167 140 136 132 110 102 65 85 322 262 241 219 178 165 176 174 174 176 210 164 161 138 170 252 214 342 83 134 134 147 166 180 199 226 143 148 156 154 148 164 173 202 236 59 88 102 89 87 89 94 94 97 101 72 74 81 80 76 78 82 86 80 69 67 62 57 44 43 43 25 0 341 352 23 15 347
125 144 144 150 159 162 177 192 152 130 140 144 142 137 144 152 161 185 190 195 220 217 197 167 170 174 186 186 202 200 138 159 159 143 187 178 191 150 136 149 143 160 195 203 234 161 157 157 156 158 170 201 216 86 96 113 117 112 87 49 106 126 120 111 103 94 84 86 90 81 67 58 55 49 53 56 54 53 36 9 343 343 15 28 11 19 17
135 137 138 138 133 171 183 119 124 145 153 149 152 166 179 185 173 182 197 199 197 198 168 166 178 163 195 192 212 150 158 171 182 170 221 243 180 206 154 153 150 170 195 203 229 143 154 184 157 162 176 130 101 105 108 106 105 99 105 102 84 84 86 90 99 103 108 103 88 76 61 52 55 63 55 50 44 11 328 284 309 26 27 16 27 24 15